Regional Weather Roundup
Issued by NWS Kansas City/Pleasant Hill, MO

Home | Current Version | Previous Version | Graphics & Text | Print | Product List | Glossary Off
Versions: 1 2 3 4 5 6 7 8 9 10 11 12 13 14 15 16 17 18 19 20 21 22 23 24 25 26 27 28 29 30 31 32 33 34 35 36 37 38 39 40 41 42 43 44 45 46 47 48 49 50

000
ASUS43 KEAX 170510
RWREAX

WEATHER ROUNDUP FOR EASTERN KANSAS AND NORTHWEST MISSOURI
NATIONAL WEATHER SERVICE KANSAS CITY/PLEASANT HILL MO
1100 PM CST MON JAN 16 2017

KSZ040-057-103>105-MOZ028-029-037-043-170600-
...KANSAS CITY METROPOLITAN AREA...

CITY           SKY/WX    TMP DP  RH WIND       PRES   REMARKS
K.C. INTL      DRZL/FOG  36  34  92 W13       29.94R VSB 1/2 WCI  27
K.C. DOWNTOWN  CLOUDY    40  37  89 W8        29.93S WCI  34
LEES SUMMIT    CLOUDY    39  32  76 W12G20    29.93R WCI  32
OLATHE - IXD   CLOUDY    37  35  92 W9        29.95R WCI  30
OLATHE - OJC   CLOUDY    37  36  96 W13       29.94R WCI  29
LAWRENCE       CLOUDY    35  35 100 W12       29.97R WCI  27

$$

MOZ001>008-011>017-020>025-030>033-038>040-044>046-053-054-170600-
...NORTHERN AND CENTRAL MISSOURI...

CITY           SKY/WX    TMP DP  RH WIND       PRES   REMARKS
ST. JOSEPH     CLOUDY    34  34 100 NW12      29.95R WCI  25
MOSBY          CLOUDY    39  37  93 W10       29.92S WCI  32
WARRENSBURG    CLOUDY    39  36  87 SW10      29.95R WCI  32
WHITEMAN AFB   CLOUDY    41  41 100 W9G18     29.92R
CLINTON        CLOUDY    41  37  87 SW10G16   29.97R WCI  35
SEDALIA        CLOUDY    42  38  85 W12       29.94S
WARSAW         NOT AVBL
CHILLICOTHE      N/A     42  40  92 VRB7      29.91R
KIRKSVILLE     CLOUDY    43  43 100 W8        29.86R

$$

MOZ041-047>049-056>058-063>065-088>090-097-170600-
...EASTERN AND SOUTHERN MISSOURI...

CITY           SKY/WX    TMP DP  RH WIND       PRES   REMARKS
ST. LOUIS INTL MOCLDY    58  54  86 SW10      29.83S
SPIRIT OF STL  LGT RAIN  56  54  93 W16G29    29.84R
COLUMBIA       CLOUDY    45  41  86 W16G26    29.91R
JEFFERSON CITY CLOUDY    47  41  80 W14G24    29.93R
ROLLA          LGT RAIN  47  42  83 W20       29.90R
OSAGE BEACH    CLOUDY    44  37  76 SW10      29.95R
SPRINGFIELD    CLOUDY    43  35  73 W16       29.97S
BRANSON        MOCLDY    41  37  87 W6        30.00R
JOPLIN         CLOUDY    42  37  82 MISG      30.01R
WEST PLAINS    MOCLDY    50  47  89 W12G22    29.96R

$$

IAZ060-094-KSZ022-034>040-054-083-096-NEZ052-066-093-170600-
...KANSAS...SOUTHEAST NEBRASKA AND IOWA...

CITY           SKY/WX    TMP DP  RH WIND       PRES   REMARKS
TOPEKA         CLOUDY    36  32  85 NW14      29.97S WCI  27
MANHATTAN      CLOUDY    35  33  92 W7        30.01R FOG     WCI  29
EMPORIA        CLOUDY    34  33  96 W10       29.99R WCI  26
CHANUTE        CLOUDY    39  35  86 W13       30.01R WCI  31
WICHITA        CLOUDY    36  34  92 NW13      30.03R WCI  27
OMAHA          CLOUDY    33  29  85 NW14      29.96F WCI  23
LINCOLN        LGT RAIN  33  32  96 N10       29.99F FOG     WCI  25
FALLS CITY     CLOUDY    34  33  96 NW12      29.95S WCI  25
LAMONI         CLOUDY    33  33 100 NW9       29.87R WCI  25
DES MOINES     FOG       33  33 100 NW7       29.88S VSB 1/4 WCI  27

$$




USA.gov is the U.S. government's official web portal to all federal, state and local government web resources and services.